Location: Unspecified
(43.8044°N, 11.0278°E)
Time: 17:55:21
(UTC+01:00)

CZ-3 Stage 3 - Visible Passes

Search period start: 28 November 2014 00:00
Search period end: 08 December 2014 00:00
Orbit: 426 x 34807 km, 31.0° (Epoch: 26 November)

Date Brightness Start Highest point End Pass type
(mag) Time Alt. Az. Time Alt. Az. Time Alt. Az.
28 Nov 5.9 05:29:33 20° W 06:07:59 42° SW 06:16:26 10° SSE visible
28 Nov 7.3 18:11:20 10° SSE 02:17:58 66° S 02:42:26 10° E visible
29 Nov 8.0 17:17:55 10° ESE 22:38:33 35° E 23:00:52 10° E visible
30 Nov 5.9 21:59:34 10° SW 06:03:27 41° SW 06:11:55 10° SSE visible
01 Dec 7.2 18:03:00 10° SSE 02:14:03 66° S 02:38:04 10° ESE visible
02 Dec 7.9 17:02:39 10° ESE 22:38:44 33° E 22:56:48 10° E visible
03 Dec 5.9 21:54:38 10° SW 05:58:48 39° SW 06:07:19 10° SSE visible
04 Dec 7.2 17:54:58 10° SSE 02:10:03 67° S 02:33:39 10° ESE visible
05 Dec 7.9 16:47:29 10° ESE 22:38:20 30° E 22:52:38 10° E visible
06 Dec 6.0 21:49:44 10° SW 05:54:05 37° SW 06:02:38 10° SSE visible
07 Dec 9.6 17:47:13 10° SSE 00:00:00 48° SW 00:00:00 48° SW visible
